Location: Lecco
(45.8566°N, 9.3977°E)
Time: 03:41:40
(UTC+02:00)

S-56A Canister/Altair - Pass Details

Date: 22 July 2019
Orbit: 633 x 2499 km, 38.9° (Epoch: 23 August)

Event Time Altitude Azimuth Distance (km) Brightness Sun altitude
Rises 15:32:57 0° 281° (W) 6,181 12.5 53.9°
Reaches altitude 10° 15:39:47 10° 261° (W) 5,100 12.4 53.0°
Maximum altitude 15:46:18 15° 234° (SW) 4,526 12.4 52.0°
Drops below altitude 10° 15:52:20 10° 207° (SSW) 4,617 12.2 51.1°
Sets 15:58:00 0° 185° (S) 5,256 12.1 50.2°
